sat.trackr.live / text

‹ back to catalog

STARLINK-34866

NORAD 65189 · 2025-175R

PAYLOAD ACTIVE UNKNOWN

§ Identity

Operator
Country
US
Launch date
2025-08-14
Launch site
AFWTR
Launch vehicle
Mass (kg)
RCS (m²)

Purposes: comms

External: N2YO · Heavens-Above · Gunter

§ Orbital elements

Epoch: 2026-09-20T21:44:12.107616Z

Period
93.91 min
Inclination
97.2827°
Eccentricity
0.0001863
Mean motion
15.33444048 rev/d
Perigee alt
464.3 km
Apogee alt
466.8 km
Semi-major
6,843.7 km
B*
3.7288e-4
RAAN
132.8627°
Arg perigee
91.1343°
Mean anomaly
269.0113°
Rev number
6,219

§ Raw data

STARLINK-348661 65189U 25175R   26263.90569569  .00011982  00000+0  37288-3 0  99982 65189  97.2827 132.8627 0001863  91.1343 269.0113 15.33444048 62190

JSON: /api/v1/satellites/65189 · /tle

For live sub-satellite position, see the globe view (requires WebGL).

§ Visibility from observer

Set your observer location to see the next 7 days of passes ≥ 10°. The values pass through the URL so the page stays shareable.

No JS? Fill the form by hand. The geolocation button needs JavaScript.